CW9804 Weather Reports


time (UTC)temp
C
wind
direction
speed
KPH
gust
KPH
rain 1hr
cm
rain 24hr
cm
rain mn
cm
humidity
%
barometer
mb
20260506210414 15 288 4.8 11.3 0.00 0.00 0.00 76 1011.8
20260506204914 15 310 3.2 11.3 0.00 0.00 0.00 75 1011.7
20260506203414 16 272 3.2 11.3 0.00 0.00 0.00 74 1011.5
20260506201914 16 305 4.8 14.5 0.00 0.00 0.00 74 1011.4
20260506200413 16 265 4.8 9.7 0.00 0.00 0.00 75 1011.3
20260506193413 16 258 4.8 11.3 0.00 0.00 0.00 75 1011.1
20260506191913 16 225 4.8 17.7 0.00 0.00 0.00 77 1011.0
20260506190413 15 155 4.8 9.7 0.00 0.00 0.00 82 1010.7
20260506184913 15 186 3.2 4.8 0.00 0.00 0.00 83 1010.7
20260506183413 15 310 0.0 3.2 0.00 0.00 0.00 82 1010.7
20260506181913 15 311 0.0 3.2 0.00 0.00 0.00 82 1010.5
20260506180413 16 76 0.0 1.6 0.00 0.00 0.00 81 1010.6
20260506174912 16 300 3.2 3.2 0.00 0.00 0.00 80 1010.6
20260506173412 16 300 0.0 4.8 0.00 0.00 0.00 80 1010.5
20260506171912 16 298 3.2 6.4 0.00 0.00 0.00 78 1010.5
20260506170412 16 284 3.2 4.8 0.00 0.00 0.00 78 1010.5
20260506164912 16 291 6.4 9.7 0.00 0.00 0.00 78 1010.5
20260506163412 16 302 4.8 9.7 0.00 0.00 0.00 77 1010.6
20260506161912 17 296 4.8 12.9 0.00 0.00 0.00 77 1010.7
20260506160411 16 276 4.8 11.3 0.00 0.00 0.00 79 1010.8
20260506154911 17 286 3.2 11.3 0.00 0.00 0.00 75 1010.8
20260506151911 16 309 3.2 6.4 0.00 0.00 0.00 80 1011.0
20260506143410 16 291 6.4 9.7 0.00 0.00 0.00 73 1011.0
20260506141910 17 313 4.8 16.1 0.00 0.00 0.00 71 1011.1
20260506140410 17 202 4.8 14.5 0.00 0.00 0.00 70 1011.2
20260506134910 17 206 0.0 8.0 0.00 0.00 0.00 70 1011.2
20260506133410 17 225 4.8 19.3 0.00 0.00 0.00 68 1011.3
20260506131910 17 217 1.6 16.1 0.00 0.00 0.00 70 1011.3
20260506124910 19 309 6.4 12.9 0.00 0.00 0.00 68 1011.5
20260506123410 18 224 6.4 14.5 0.00 0.00 0.00 69 1011.6
20260506114910 18 277 6.4 14.5 0.00 0.00 0.00 66 1011.8
20260506113410 18 219 9.7 20.9 0.00 0.00 0.00 65 1012.1
20260506111910 18 305 6.4 17.7 0.00 0.00 0.00 65 1012.0
20260506110410 18 158 8.0 16.1 0.00 0.00 0.00 66 1012.2
20260506104910 19 111 3.2 14.5 0.00 0.00 0.00 66 1012.3
20260506100410 17 286 6.4 14.5 0.00 0.00 0.00 72 1012.7
20260506091911 16 273 0.0 6.4 0.00 0.00 0.00 80 1012.7
20260506090411 16 315 4.8 11.3 0.00 0.00 0.00 80 1012.7
20260506084911 16 300 4.8 8.0 0.00 0.00 0.00 79 1012.5
20260506083411 16 18 3.2 6.4 0.00 0.00 0.00 79 1012.4
20260506081911 16 18 0.0 4.8 0.00 0.00 0.00 81 1012.2
20260506080411 15 313 3.2 11.3 0.00 0.00 0.00 79 1012.3
20260506073410 15 292 4.8 6.4 0.00 0.00 0.00 81 1012.5
20260506071910 15 241 1.6 4.8 0.00 0.00 0.00 80 1012.5
20260506070410 15 213 1.6 8.0 0.00 0.00 0.00 80 1012.6
20260506061910 16 230 8.0 19.3 0.00 0.00 0.00 74 1012.3
20260506060409 16 269 11.3 20.9 0.00 0.00 0.00 73 1012.3
20260506050415 15 225 8.0 12.9 0.00 0.00 0.00 76 1012.2
20260506044915 15 217 9.7 16.1 0.00 0.00 0.00 76 1012.0
20260506041915 15 219 6.4 16.1 0.00 0.00 0.00 77 1012.0
20260506040415 15 255 4.8 12.9 0.00 0.00 0.00 78 1012.0
20260506034915 15 263 11.3 24.1 0.00 0.00 0.00 78 1012.0
20260506031914 15 236 8.0 22.5 0.00 0.00 0.00 78 1012.0
20260506030414 15 254 9.7 16.1 0.00 0.00 0.00 78 1012.2
20260506024914 15 227 11.3 16.1 0.00 0.00 0.00 79 1012.2
20260506023414 15 270 6.4 14.5 0.00 0.00 0.00 78 1012.4
20260506021914 14 254 8.0 16.1 0.00 0.00 0.00 79 1012.4
20260506020414 14 246 9.7 14.5 0.00 0.00 0.00 80 1012.4
20260506014913 14 246 6.4 9.7 0.00 0.00 0.00 79 1012.3
20260506011913 14 225 8.0 14.5 0.00 0.00 0.00 78 1012.2
20260506010413 14 275 8.0 27.4 0.00 0.00 0.00 79 1012.1
20260506003413 14 227 14.5 19.3 0.00 0.00 0.00 78 1012.2
20260506001913 14 228 12.9 24.1 0.00 0.00 0.00 78 1012.3
20260505234912 14 269 4.8 12.9 0.00 0.00 0.00 80 1012.6
20260505233412 14 287 3.2 9.7 0.00 0.00 0.00 80 1012.6
20260505231912 14 289 6.4 11.3 0.00 0.00 0.00 79 1012.7
20260505230412 14 254 4.8 11.3 0.00 0.00 0.00 79 1012.9
20260505224912 14 259 9.7 20.9 0.00 0.00 0.00 78 1012.7
20260505223412 15 245 14.5 27.4 0.00 0.00 0.00 77 1012.5
20260505221911 14 268 4.8 9.7 0.00 0.00 0.00 78 1012.5
20260505220411 14 263 3.2 12.9 0.00 0.00 0.00 78 1012.5
20260505214911 15 304 1.6 19.3 0.00 0.00 0.00 77 1012.6
20260505213411 14 286 9.7 16.1 0.00 0.00 0.00 79 1012.8
20260505211911 14 63 1.6 9.7 0.00 0.00 0.00 81 1012.9